Miscellaneous Local Product
Issued by NWS North Platte, NE

Home | Current Version | Previous Version | Graphics & Text | Print | Product List | Glossary On
Versions: 1 2 3 4 5 6 7 8 9 10 11 12 13 14 15 16 17 18 19 20 21 22 23 24 25 26 27 28 29 30 31 32 33 34 35 36 37 38 39 40 41 42 43 44 45 46 47 48 49 50
782
AXUS43 KLBF 092210
MISLBF


WESTERN AND NORTH CENTRAL NEBRASKA HOURLY WEATHER ROUNDUP
NATIONAL WEATHER SERVICE NORTH PLATTE NE
400 PM CST TUE FEB 09 2016

NOTE: "FAIR" INDICATES FEW OR NO CLOUDS BELOW 12,000 FEET WITH NO
SIGNIFICANT WEATHER AND/OR OBSTRUCTIONS TO VISIBILITY.

NOTE: STATIONS NOT REPORTING VARIABLES SUCH AS SKY/WEATHER OR
PRESSURE ARE PROVIDED BY THE NEBRASKA DEPARTMENT OF
ROADS...RAWS...AND APRS NETWORKS...AND ARE NOT UNDER
NATIONAL WEATHER SERVICE QUALITY CONTROL.

...OBSERVATIONS IN AND NEAR THE EASTERN PANHANDLE OF NEBRASKA...

CITY           SKY/WX    TMP DP  RH WIND       PRES   REMARKS
PINE RIDGE     CLOUDY    46  30  53 S3        30.14F
CHADRON        MOSUNNY   51  33  50 W15       30.15F
ALLIANCE       CLOUDY    37  32  82 W10       30.17F WCI  30
SIDNEY         CLOUDY    42  31  64 NW14      30.22S
CRESCENT LAKE    N/A     46  30  54 NW13G20     N/A
$$

...OBSERVATIONS IN NORTH CENTRAL NEBRASKA...

CITY           SKY/WX    TMP DP  RH WIND       PRES   REMARKS
VALENTINE      CLOUDY    37  22  54 SW8       30.15F WCI  31
THEDFORD       CLOUDY    40  24  54 SW7       30.17S WCI  35
AINSWORTH      CLOUDY    34  18  52 SW8       30.17F WCI  27
O`NEILL        CLOUDY    31  12  45 W6        30.22S WCI  25
ORD            MOSUNNY   28  14  55 W9        30.23S WCI  19
BROKEN BOW     PTSUNNY   31  16  54 SW3       30.21F
VALENTINE NWR    N/A     33  19  56 SW8         N/A  WCI  26
BUTTE            N/A     31  14  48 W7          N/A  WCI  24
HALSEY           N/A     35  20  54 S6          N/A  WCI  30
CHAMBERS         N/A     34  13  42 W5          N/A  WCI  30
$$

...OBSERVATIONS IN SOUTHWEST NEBRASKA AND FAR NORTHEAST COLORADO...

CITY           SKY/WX    TMP DP  RH WIND       PRES   REMARKS
WRAY           FAIR      48  31  50 NW14      30.23S
HOLYOKE        FAIR      46  32  57 W9        30.21S
IMPERIAL       CLOUDY    43  30  60 NW6       30.21S
OGALLALA       CLOUDY    40  32  72 W5        30.18F
NORTH PLATTE   CLOUDY    35  20  54 SW6       30.20F WCI  30
MCCOOK         CLOUDY    36  22  56 SW7       30.23F WCI  30
LEXINGTON      CLOUDY    32  18  56 CALM      30.23F
PAXTON           N/A     41  34  76 SW6         N/A
STAPLETON        N/A     35  24  64 CALM        N/A
GOTHENBURG       N/A     34  20  57 SE3         N/A
CALLAWAY         N/A     32  23  70 SW9         N/A  WCI  24
$$

...OBSERVATIONS IN CENTRAL LINCOLN COUNTY AREA...

CITY           SKY/WX    TMP DP  RH WIND       PRES   REMARKS
N.P. AIRPORT   CLOUDY    35  20  54 SW6       30.20F WCI  30
N.P. DOWNTOWN    N/A     36  22  56 CALM        N/A
N.P. SOUTHEAST   N/A     36  22  55 SW3         N/A
N.P. HILLCREST   N/A     36  23  59 SW3         N/A
$$

...SOME OBSERVATIONS FROM AROUND THE REGION...

CITY           SKY/WX    TMP DP  RH WIND       PRES   REMARKS
DENVER         MOSUNNY   53  20  27 N6        30.28S
LARAMIE        SUNNY     44  22  41 NW16G23   30.32S
CHEYENNE       SUNNY     46  23  40 NW18G30   30.27S
SCOTTSBLUFF    SUNNY     52  34  50 NW12G22   30.21S
RAPID CITY     CLOUDY    53  29  39 NW21G30   30.11F
BISMARCK       CLOUDY    41  16  36 VRB5      30.14F
PIERRE         CLOUDY    35  15  44 SW9       30.16F WCI  28
WINNER         PTSUNNY   34  14  43 SW13      30.17F WCI  25
SIOUX FALLS    CLOUDY    23  11  60 NW13      30.21S WCI  11
OMAHA          MOSUNNY   23  10  57 NW16      30.25R WCI  10
GRAND ISLAND   CLOUDY    27  12  53 NW7       30.27S WCI  19
KANSAS CITY    MOSUNNY   28   4  35 NW18G29   30.20R WCI  15
WICHITA        MOSUNNY   42  16  34 N21G26    30.27R
OKLAHOMA CITY  MOSUNNY   50  21  32 N21G30    30.27S
LIBERAL        PTSUNNY   59  28  31 N17       30.26R
HAYS           CLOUDY    36  16  44 N12       30.29R WCI  27
GOODLAND       SUNNY     48  31  51 NW10      30.23S
$$




USA.gov is the U.S. government's official web portal to all federal, state and local government web resources and services.